IW9DKU-3 Weather Reports


Display with metric or nautical units.
time (UTC)temp
F
wind
direction
speed
MPH
gust
MPH
rain 1hr
in
rain 24hr
in
rain mn
in
humidity
%
barometer
mb
20260505072714 69 0.0 0.0 0.00 0.00 0.00 58 1026.1
20260505070710 68 0.0 0.0 0.00 0.00 0.00 58 1026.0
20260505070028 67 0.0 0.0 0.00 0.00 0.00 60 1025.6
20260505064705 68 0.0 0.0 0.00 0.00 0.00 59 1026.0
20260505062701 67 0.0 0.0 0.00 0.00 0.00 59 1025.9
20260505060657 67 0.0 0.0 0.00 0.00 0.00 59 1025.9
20260505054652 67 0.0 0.0 0.00 0.00 0.00 60 1025.7
20260505051844 67 0.0 0.0 0.00 0.00 0.00 60 1025.7
20260505035830 67 0.0 0.0 0.00 0.00 0.00 60 1025.1
20260505033827 67 0.0 0.0 0.00 0.00 0.00 60 1025.1
20260505031823 67 0.0 0.0 0.00 0.00 0.00 60 1025.0
20260505025820 67 0.0 0.0 0.00 0.00 0.00 59 1025.2
20260505023816 67 0.0 0.0 0.00 0.00 0.00 60 1025.4
20260505021813 67 0.0 0.0 0.00 0.00 0.00 59 1025.4
20260505015809 67 0.0 0.0 0.00 0.00 0.00 59 1025.5
20260505013806 67 0.0 0.0 0.00 0.00 0.00 59 1025.7
20260505011802 67 0.0 0.0 0.00 0.00 0.00 59 1025.8
20260505005759 67 0.0 0.0 0.00 0.00 0.00 59 1025.8
20260505003755 68 0.0 0.0 0.00 0.00 0.00 59 1025.8
20260505001752 68 0.0 0.0 0.00 0.00 0.00 59 1026.1
20260504233745 68 0.0 0.0 0.00 0.00 0.00 58 1026.4
20260504231742 68 0.0 0.0 0.00 0.00 0.00 59 1026.6
20260504225738 68 0.0 0.0 0.00 0.00 0.00 58 1026.8
20260504215728 68 0.0 0.0 0.00 0.00 0.00 56 1027.1
20260504213724 69 0.0 0.0 0.00 0.00 0.00 55 1027.2
20260504211721 69 0.0 0.0 0.00 0.00 0.00 55 1027.2
20260504205717 69 0.0 0.0 0.00 0.00 0.00 57 1027.2
20260504203714 69 0.0 0.0 0.00 0.00 0.00 56 1027.4
20260504201710 69 0.0 0.0 0.00 0.00 0.00 56 1027.4
20260504195707 69 0.0 0.0 0.00 0.00 0.00 56 1027.4
20260504191700 70 0.0 0.0 0.00 0.00 0.00 56 1027.2
20260504185657 70 0.0 0.0 0.00 0.00 0.00 56 1027.1
20260504183653 70 0.0 0.0 0.00 0.00 0.00 57 1026.9
20260504181650 70 0.0 0.0 0.00 0.00 0.00 57 1026.9
20260504175646 71 0.0 0.0 0.00 0.00 0.00 56 1026.6
20260504173643 71 0.0 0.0 0.00 0.00 0.00 55 1026.5
20260504171639 71 0.0 0.0 0.00 0.00 0.00 54 1026.4
20260504081506 68 0.0 0.0 0.00 0.00 0.00 57 1028.4